Location: Friedrichshafen
(47.6598°N, 9.4819°E)
Time: 14:39:08
(UTC+01:00)

ISS - Pass Details

Date: 07 January 2018
Orbit: 402 x 407 km, 51.6° (Epoch: 18 January)

Event Time Altitude Azimuth Distance (km) Brightness Sun altitude
Exits shadow 07:28:57 - 295° (WNW) 1,548 -1.6 -6.8°
Reaches altitude 10° 07:29:08 10° 296° (WNW) 1,470 -1.7 -6.8°
Maximum altitude 07:32:25 65° 19° (NNE) 453 -3.6 -6.3°
Drops below altitude 10° 07:35:41 10° 102° (ESE) 1,468 0.6 -5.8°
Sets 07:37:47 0° 106° (ESE) 2,327 2.1 -5.5°
